Вернуться в каталог

ARIANE 44L DEB

LostHEO
NORAD 33589·DEBRIS·🇫🇷 France

Запущен Jan 15, 1991 с Guiana Space Centre

Loading…

Ближайшие Пролёты (ближайшие 24 часа)

TLE

УстаревшееSource: Space-Track

Эпоха: Jun 5, 2019, 06:49 UTC

1 33589U 91003S   19156.28428763 -.00000001  00000-0  39291-2 0  9991
2 33589   7.5114   0.3168 6752729 232.4889  45.0370  2.63585777124556

Отслеживайте ARIANE 44L DEB в реальном времени с AllMySat

Download on the App Store